www.pogodaiklimat.ru

Погода и климат >> Архив погоды >> Саудовская Аравия >> Мадина


ПОГОДА в Мадине

  • Прогноз погоды в Мадине
  • Монитор погоды в Мадине

АРХИВ ПОГОДЫ в Мадине

Время (UTC), дата Ветер
(напр.,м/с)
 
Видим.   Явления Облачность Т
(С)
Тd
(С)
f
(%)
Тe
(С)
Тes
(С)
Комфортность P
(гПа)
Po
(гПа)
Тmin
(С)
Tmax
(С)
R
(мм)
R24
(мм)
S
(см)
09 16.02 З 2 10 км 4/0
[Ac trans]
+15.6 -5.0 24 +16 +27 1020.2 947.0
12 16.02 З 3 10 км ясно +19.1 -5.0 19 +19 +26 1017.6 944.8
15 16.02 ЮЗ 2 10 км 5/0
[Ac trans]
+19.2 -7.0 16 +20 +20 1018.1 945.0
18 16.02 С 2 10 км 3/0
[Ci fib]
+17.2 -7.0 18 +18 +18 1019.5 946.3 +19.6
21 16.02 С 3 10 км 3/0
[Ci fib]
+14.2 -5.0 26 +14 +14 1019.2 946.1
00 17.02 С 2 10 км ясно +13.3 -7.0 24 +13 +13 1018.1 945.4
03 17.02 СВ 2 10 км ясно +10.0 -4.0 37 +10 +10 1018.9 945.6
06 17.02 штиль 0 10 км ясно +13.6 -4.0 29 +14 +21 1020.5 947.3 +8.0
09 17.02 штиль 0 10 км ясно +19.7 -4.0 20 +19 +39 опасность
простуды
1019.2 946.5
12 17.02 штиль 0 10 км ясно +22.1 -7.0 14 +21 +31 комфорт 1015.6 943.0
15 17.02 З 4 10 км ясно +22.1 -10.0 11 +20 +20 1014.6 941.9
18 17.02 СЗ 2 10 км ясно +18.5 -8.0 16 +19 +19 1014.8 942.5 +23.2
21 17.02 В 1 10 км ясно +15.6 -5.0 24 +17 +17 1015.2 943.0
00 18.02 СВ 1 10 км ясно +12.7 -5.0 29 +13 +13 1014.4 942.2
03 18.02 С 2 10 км ясно +10.0 -4.0 37 +9 +9 1013.7 941.2
06 18.02 штиль 0 10 км 3/0
[Ac trans]
+14.9 -4.0 27 +15 +21 1014.7 942.2 +9.4
09 18.02 ЮЗ 3 10 км 4/0
[Ac trans]
+19.2 -4.0 20 +19 +29 1012.9 940.6
12 18.02 З 3 10 км ясно +21.9 -3.0 19 +21 +28 комфорт 1009.9 937.7
15 18.02 З 6 10 км 3/0
[Ac trans]
+21.6 -13.0 9 +20 +20 1009.1 936.9
18 18.02 СЗ 6 10 км 3/0
[Ac trans]
+18.6 -5.0 20 +18 +18 1011.5 939.5 +22.5
21 18.02 СЗ 6 10 км ясно +15.3 -3.0 28 +14 +14 1012.8 940.8
00 19.02 СЗ 3 10 км ясно +13.2 -4.0 30 +13 +13 1013.9 941.8
03 19.02 С 6 10 км ясно +11.3 -2.0 39 +9 +9 1016.4 943.7
06 19.02 СЗ 5 10 км ясно +12.5 -2.0 36 +11 +13 1018.7 945.6 +9.4
09 19.02 С 7 10 км ясно +16.5 -4.0 24 +15 +20 1018.6 945.6
12 19.02 С 3 10 км ясно +17.9 -8.0 16 +18 +26 1016.8 944.0
15 19.02 СВ 3 10 км ясно +18.6 -7.0 17 +19 +19 1017.2 944.1
18 19.02 СВ 6 10 км ясно +16.0 -5.0 23 +15 +15 1019.6 946.4 +18.9
21 19.02 СВ 2 10 км ясно +13.5 -4.0 29 +13 +13 1020.3 947.0
00 20.02 В 4 10 км ясно +12.1 -1.0 40 +10 +10 1020.5 947.4
03 20.02 В 2 10 км ясно +10.0 0.0 50 +9 +9 1021.2 947.6
06 20.02 В 5 10 км ясно +11.8 -1.0 41 +10 +13 1022.8 949.0 +9.0
09 20.02 ЮВ 7 10 км ясно +16.8 -3.0 26 +16 +19 1020.7 947.4
12 20.02 В 6 10 км ясно +20.2 -5.0 18 +20 +23 1017.1 944.3
15 20.02 В 5 10 км ясно +20.2 -5.0 18 +20 +20 1016.4 943.5
18 20.02 В 3 10 км ясно +18.0 -4.0 22 +18 +18 1017.9 944.6 +20.9
21 20.02 В 4 10 км ясно +17.2 -5.0 22 +17 +17 1016.8 944.4
00 21.02 ЮЗ 2 10 км ясно +14.0 -4.0 28 +14 +14 1016.0 943.6
03 21.02 СВ 3 10 км ясно +11.9 -3.0 35 +11 +11 1016.3 943.5
06 21.02 СВ 2 10 км 4/0
[Ci fib]
+14.8 -4.0 27 +15 +20 1017.3 944.6 +10.7
09 21.02 В 2 8000 м пыль 4/0
[Ci fib]
+19.4 -3.0 22 +20 +34 опасность
простуды
1015.7 943.5
12 21.02 З 2 10 км 6/0
[As op]
+23.0 -3.0 17 +21 +26 комфорт 1012.8 940.9
15 21.02 Ю 2 10 км 8/0
[As op]
+23.4 -1.0 20 +22 +22 комфорт 1013.1 940.9
18 21.02 З 3 10 км 5/0
[As op]
+22.2 +2.0 26 +22 +22 комфорт 1013.4 941.7 +24.3
21 21.02 З 2 10 км 5/0
[Ac trans]
+20.9 +2.0 29 +22 +22 комфорт 1011.2 940.0
00 22.02 СЗ 1 10 км 5/1 1350 м
[Sc Ac trans]
+19.0 +1.0 30 +20 +20 1011.2 940.1
03 22.02 СЗ 1 10 км 5/1 1350 м
[Sc Ac trans]
+15.8 -2.0 29 +17 +17 1012.3 940.7
06 22.02 Ю 1 10 км 3/0
[Ac trans]
+18.0 -2.0 26 +19 +25 1013.4 941.8 +13.5
09 22.02 штиль 0 10 км ясно +22.4 -1.0 21 +21 +42 комфорт 1011.9 940.7
12 22.02 С 1 10 км 1/1 1350 м
[Cu hum]
+25.5 +2.0 22 +24 +33 комфорт 1008.8 937.9
15 22.02 ЮЗ 5 10 км 1/1 1350 м
[Cu hum]
+25.0 -8.0 11 +22 +22 комфорт 1009.8 938.4
18 22.02 З 2 10 км ясно +21.9 -5.0 16 +21 +21 комфорт 1011.9 940.5 +26.8
21 22.02 ЮЗ 3 10 км ясно +18.9 -2.0 24 +19 +19 1012.3 941.1
00 23.02 С 2 10 км ясно +16.2 -1.0 31 +17 +17 1012.1 941.0
03 23.02 С 2 10 км ясно +13.0 -2.0 35 +13 +13 1013.4 941.7

 

Местоположение метеостанции Мадина (Саудовская Аравия): широта 24.55 долгота 39.70 высота над уровнем моря 636 м.

В архиве по умолчанию представлена погода в Мадине за последнюю неделю. Архивные данные за месяц целиком и за предыдущие месяцы, начиная с января 2011 года, Вы можете получить, выбрав интересующий диапазон дат из раскрывающегося списка и нажав кнопку "Ввод!".


*Определитесь, кто Вы:
робот инопланетянин человек

Внимание! Время в таблицах - всемирное. Для получения местного времени необходимо прибавить поправку, которая равна 3 ч.

Смотрите также архив погоды в соседних городах и на ближайших метеорологических станциях:

Погода в Янбу (Саудовская Аравия) (172 км)
Погода в Аль-Уле (Саудовская Аравия) (267 км)
Погода в Король Абдул Азиз (Саудовская Аравия) (321 км)
Погода в Мекке (Саудовская Аравия) (347 км)
Погода в Мине (Саудовская Аравия) (349 км)
Погода в Аль-Таифе (Саудовская Аравия) (352 км)
Погода в Арафате (Саудовская Аравия) (359 км)
Погода в Эль-Ваджхе (Саудовская Аравия) (372 км)
Погода в Хаиле (Саудовская Аравия) (377 км)
Погода в Шалатейне (Египет) (448 км)

Пояснения к столбцам:

Ветер - указаны скорость ветра в м/с - средняя за 10 мин, порывы в срок и между сроками (в фигурных скобках) и направление, откуда дует ветер: С - северный, СВ - северо-восточный, В - восточный, ЮВ - юго-восточный, Ю - южный, ЮЗ - юго-западный, З - западный, СЗ - северо-западный.
Видимость - горизонтальная дальность видимости в метрах или километрах. При видимости от 1 до 10 км при отсутствии осадков обычно наблюдается дымка, при ухудшении видимости до 1 км и менее - туман. В сухую погоду видимость может ухудшаться дымом, пылью или мглою.
Явления - указаны атмосферные явления, наблюдавшиеся в срок или в последний час перед сроком; фигурными скобками обозначены явления, наблюдавшиеся между сроками (за 1-3 часа до срока); квадратными скобками обозначены град или гололедные отложения с указанием их диаметра в мм.
Облачность - указаны через наклонную черту общая и нижняя облачность в баллах и высота нижней границы облаков в метрах; квадратными скобками обозначены формы облаков: Ci - перистые, Cs - перисто-слоистые, Cc - перисто-кучевые, Ac - высококучевые, As - высокослоистые, Sc - слоисто-кучевые, Ns - слоисто-дождевые, Cu - кучевые, Cb - кучево-дождевые. Подробнее классификацию облаков см. в Атласе облаков (PDF).
T - Температура воздуха - температура, измеренная на высоте 2 м над землей.
Td - Температура точки росы - температура, при понижении до которой содержащийся в воздухе водяной пар достигнет насыщения.
f - Относительная влажность воздуха - влажноcть воздуха, измеренная на высоте 2 м над землей.
Te - Эффективная температура - температура, которую ощущает одетый по сезону человек в тени. Характеристика душности погоды. При расчете учитывается влияние влажности воздуха и скорости ветра на теплоощущения человека.
Tes - Эффективная температура на солнце - температура, которую ощущает человек, с поправкой на солнечный нагрев. Характеристика знойности погоды. Зависит от высоты солнца над горизонтом, облачности и скорости ветра. Ночью, в пасмурную погоду, а также при ветре 12 м/с и более поправка равна нулю.
P - Атмосферное давление - приведенное к уровню моря атмосферное давление.
Po - Атмосферное давление - измеренное на уровне метеостанции атмосферное давление.
Tmin - Минимальная температура - минимум температуры воздуха на высоте 2 м над землей.
Tmax - Максимальная температура - максимум температуры воздуха на высоте 2 м над землей.
R - Количество осадков - Количество выпавших осадков за период времени, мм. При наведении курсора мыши на число - период времени, за который выпало указанное количество осадков.
R24 - Количество осадков - Количество выпавших осадков за 24 часа, мм.
S - Снежный покров - Высота снежного покрова, см. При наведении курсора мыши на число - состояние снежного покрова и степень покрытия местности в баллах.